Location: ??
(35.4770°N, 139.4420°E)
Time: 18:46:26
(UTC+00:00)

Daily predictions for brighter satellites

Satellite Brightness Start Highest point End
(mag) Time Altitude Azimuth Time Altitude Azimuth Time Altitude Azimuth
Cosmos 2082 Rocket 4.4 12:01:00 10° WNW 12:04:48 19° W 12:08:35 10° SW
STARLINK-1101 3.7 12:01:07 10° NW 12:05:12 59° SW 12:05:35 56° SSW
STARLINK-1369 3.4 12:03:06 10° SW 12:07:05 87° NW 12:11:06 10° NE
Abrixas rocket 4.2 12:07:35 10° W 12:08:59 19° WSW 12:08:59 19° WSW
STARLINK-1102 3.9 12:06:09 10° NW 12:10:11 53° SW 12:10:23 52° SW
CENTAUR R/B 3.6 12:02:55 10° NNW 12:11:02 55° NE 12:15:18 31° ESE
Cosmos 1271 Rocket 3.6 12:12:16 37° ENE 12:12:16 37° ENE 12:15:10 10° NNE
STARLINK-1372 3.5 12:07:26 10° SW 12:11:26 79° NW 12:15:26 10° NE
SL-27 R/B 2.7 12:09:05 10° NNW 12:12:10 61° NNE 12:12:10 61° NNE
STARLINK-1111 4.1 12:11:11 10° WNW 12:15:10 47° SW 12:15:12 47° SW
STARLINK-1378 3.7 12:11:46 10° SW 12:15:45 72° NW 12:19:45 10° NE
Cosmos 968 Rocket 3.8 12:12:18 10° N 12:17:14 46° ENE 12:17:53 43° E
ATLAS 3B R/B 4.1 12:12:51 10° N 12:18:33 27° NE 12:21:56 19° E
STARLINK-1073 4.3 12:16:11 10° WNW 12:19:58 42° SW 12:19:58 42° SW
STARLINK-1379 3.8 12:16:10 10° SW 12:20:08 65° NW 12:24:08 10° NE
Cosmos 1707 4.0 12:24:31 30° NE 12:24:31 30° NE 12:26:54 10° NNE
STARLINK-1329 4.0 12:19:44 10° WSW 12:23:42 60° NW 12:27:40 10° NE
Cosmos 1455 Rocket 2.9 12:19:33 10° N 12:23:49 73° ENE 12:23:49 73° ENE
Cosmos 1655 Rocket 4.4 12:24:37 40° ESE 12:25:18 42° E 12:31:07 10° NNE
IGS 5A 4.3 12:27:23 39° WSW 12:27:59 42° W 12:31:57 10° NNW
STARLINK-1362 4.2 12:24:12 10° WSW 12:28:08 55° NW 12:32:06 10° NE
Cosmos 1242 Rocket 3.0 12:28:33 59° NW 12:28:33 59° NW 12:31:52 10° N
CARTOSAT-1 3.4 12:28:32 88° SE 12:28:35 89° ENE 12:32:55 10° NNW
ATLAS CENTAUR R/B 2.6 12:27:58 12° SW 12:31:51 44° WNW 12:35:54 10° NNE
Milstar 3 Cent rocket 3.9 12:23:54 10° WSW 12:32:06 58° SSE 12:50:01 10° E
STARLINK-1373 4.4 12:28:41 10° WSW 12:32:36 50° NW 12:36:32 10° NE
Cosmos 1758 4.3 12:29:10 10° N 12:32:15 39° NE 12:32:15 39° NE
NOSS 3-2 (C) 4.1 12:25:13 10° NNW 12:33:06 81° ENE 12:36:17 44° SE
NOSS 3-4 (A) 4.1 12:30:44 10° SW 12:36:26 52° NW 12:42:28 10° NNE
NOSS 3-4 (C) 4.1 12:30:49 10° SW 12:36:33 53° NW 12:42:35 10° NNE
ATLAS 3B CENTAUR R/B 3.4 12:21:21 10° W 12:36:40 53° SSW 12:38:53 44° SSE
SPOT 5 3.0 12:41:45 65° SSW 12:42:27 77° WSW 12:47:50 10° NNW
Resurs 01 Rocket 4.3 12:41:22 10° WSW 12:42:41 11° W 12:43:59 10° WNW
Terra 1.7 12:48:19 85° N 12:48:19 85° N 12:52:58 10° NNW
Cosmos 1536 Rocket 4.0 12:50:22 56° NNE 12:50:22 56° NNE 12:53:52 10° N
ATLAS 5 CENTAUR R/B 2.8 12:42:06 10° SW 12:51:04 61° WNW 12:54:05 10° NNE
COSMOS 2455 3.1 12:48:32 28° SW 12:51:47 65° WNW 12:57:47 10° NNE
Cosmos 2084 4.0 12:54:14 58° N 12:54:14 58° N 12:57:56 10° NNE
Cosmos 1503 Rocket 3.9 12:54:36 10° NNW 12:59:54 84° NE 12:59:54 84° NE
Meteor 2-10 4.2 12:56:10 10° N 13:00:39 57° NE 13:00:39 57° NE
Cosmos 1544 Rocket 4.2 12:57:02 10° NNW 13:00:44 52° WNW 13:00:44 52° WNW
Meteor 2-19 Rocket 4.4 13:02:32 65° ESE 13:02:40 65° E 13:08:43 10° NNE
ATLAS 2AS CENTAUR R/B 4.2 12:57:04 10° WSW 13:04:27 41° NW 13:11:55 10° NNE
Cosmos 1417 Rocket 4.4 12:59:47 10° N 13:06:10 88° W 13:06:56 71° S
SeaSat 1 3.9 13:06:32 10° NE 13:08:58 26° ENE 13:08:58 26° ENE
Exosat Rocket 4.3 13:05:24 10° NNW 13:13:25 60° ENE 13:14:12 56° E
Cosmos 2297 Rocket 4.4 13:17:50 10° NNE 13:20:51 14° NE 13:22:17 13° ENE
Cosmos 1354 Rocket 4.3 13:16:53 10° NNW 13:21:41 64° WNW 13:21:41 64° WNW
Cosmos 1726 4.2 13:20:25 10° N 13:22:12 27° N 13:22:12 27° N
Meteor 2-15 4.4 13:23:21 10° N 13:29:16 68° ENE 13:29:16 68° ENE
S3M 4.2 13:32:17 10° NNW 13:38:24 60° W 13:38:41 59° WSW
BREEZE-M DEB (TANK) 3.8 13:30:39 10° WSW 13:38:59 43° NW 13:42:11 10° NE
Cosmos 2315 Rocket 4.0 13:36:22 10° N 13:42:17 68° ENE 13:42:17 68° ENE
RESURS DK-1 4.2 13:43:28 28° NW 13:43:28 28° NW 13:46:18 10° N
Meteor 1-16 Rocket 4.5 13:41:17 10° NNW 13:45:49 59° NW 13:45:49 59° NW
Cosmos 1953 4.5 13:47:03 10° NNW 13:48:53 23° NW 13:48:53 23° NW
Cosmos 2098 Rocket 4.2 13:49:58 73° SW 13:50:41 80° W 13:58:12 10° N
Meteor 2-15 Rocket 4.4 13:45:30 10° N 13:51:15 77° NNE 13:51:15 77° NNE
Cosmos 2227 Rocket 3.8 13:54:19 10° N 13:58:56 25° ENE 13:59:25 25° ENE
CENTAUR R/B 4.0 13:54:08 10° NW 14:01:38 36° WSW 14:02:28 35° WSW
ATLAS 3B R/B 2.9 14:02:51 10° NW 14:09:10 59° W 14:09:10 59° W
Meteor 2-5 Rocket 4.2 14:13:55 57° NW 14:13:55 57° NW 14:18:43 10° N
SJ 16-02 3.5 14:15:19 10° N 14:17:42 22° NE 14:17:42 22° NE
Cosmos 1745 Rocket 4.3 14:33:31 58° ENE 14:33:31 58° ENE 14:38:47 10° NNE
Cosmos 1980 Rocket 3.6 14:41:20 27° ENE 14:41:20 27° ENE 14:44:38 10° NE
CZ-4C R/B 2.8 14:45:53 48° N 14:45:53 48° N 14:50:18 10° NNE
SeaSat 1 4.2 14:44:31 10° N 14:48:25 24° NW 14:48:45 24° WNW
Cosmos 2369 4.2 14:50:35 53° NE 14:50:35 53° NE 14:54:54 10° NNE
Cosmos 2297 Rocket 2.8 14:59:51 10° NNW 15:04:04 51° NW 15:04:04 51° NW
Cosmos 1937 Rocket 4.4 15:01:56 10° N 15:06:20 45° NE 15:06:20 45° NE
Cosmos 2219 4.1 15:03:16 10° NNW 15:07:04 40° NW 15:07:04 40° NW
Helios 1B rocket 4.3 15:10:25 10° N 15:12:29 29° N 15:12:29 29° N
Cosmos 1898 Rocket 4.2 15:09:57 10° NNW 15:13:58 52° N 15:13:58 52° N
Cosmos 2322 Rocket 4.3 15:18:50 15° E 15:18:50 15° E 15:21:25 10° ENE
Cosmos 2082 4.0 15:14:03 10° NNW 15:19:00 62° NNE 15:19:00 62° NNE
Cosmos 1709 Rocket 3.9 15:21:50 77° NNE 15:21:50 77° NNE 15:27:33 10° N
Cosmos 1697 Rocket 3.4 15:26:03 47° NW 15:26:03 47° NW 15:31:05 10° N
Cosmos 2278 4.0 15:26:41 64° N 15:26:41 64° N 15:31:34 10° NNE
SL-16 R/B 4.2 15:24:56 19° ESE 15:27:48 26° ENE 15:32:45 10° NNE
Lacrosse 4 Rocket 3.4 15:27:52 10° NNW 15:29:41 25° NNW 15:29:41 25° NNW
USA 215 3.6 15:31:49 28° ESE 15:35:24 61° NE 15:41:51 10° NW
Cosmos 841 Rocket 4.1 15:38:23 52° NNW 15:38:23 52° NNW 15:42:36 10° N
Resurs 1-4 Rocket 3.3 15:34:02 10° NE 15:38:25 32° E 15:38:25 32° E
Cosmos 2227 Rocket 3.4 15:37:49 10° NW 15:41:13 31° WNW 15:41:13 31° WNW
IRAS Rocket 4.4 15:46:50 68° ENE 15:46:50 68° ENE 15:52:18 10° N
Cosmos 2285 Rocket 3.8 15:41:24 10° NNW 15:47:47 89° ENE 15:47:48 89° ESE
SL-16 R/B 3.0 15:53:26 39° E 15:53:26 39° E 15:58:29 10° NE
BREEZE M DEB (TANK) 4.5 15:52:32 52° SW 15:55:07 87° NW 16:29:29 10° NE
SJ 16-02 3.8 15:53:54 10° NW 15:54:40 14° NW 15:54:40 14° NW
Cosmos 2074 Rocket 3.9 16:07:54 71° SSE 16:08:33 78° E 16:14:50 10° N
CZ-2D R/B 2.3 16:03:24 10° NNE 16:08:25 62° E 16:08:25 62° E
Cosmos 1400 Rocket 4.1 16:08:29 10° N 16:11:13 40° N 16:11:13 40° N
MOZ.5/SAFIR/RUBIN 5/SL-8 4.0 16:15:58 66° NNE 16:15:58 66° NNE 16:20:03 10° N
Cosmos 2360 Rocket 3.7 16:15:06 24° ESE 16:16:06 25° ESE 16:20:34 10° NE
FALCON 9 R/B 3.3 16:14:36 45° WSW 16:16:56 68° SSW 16:37:48 10° ESE
Cosmos 1980 Rocket 3.4 16:23:05 29° WNW 16:23:35 30° WNW 16:28:29 10° N
Cosmos 2184 Rocket 3.9 16:32:34 62° WSW 16:33:18 68° W 16:39:26 10° N
Cosmos 2221 3.1 16:30:53 10° N 16:35:10 53° E 16:35:22 52° E
Cosmos 2327 Rocket 4.5 16:34:14 58° S 16:35:39 88° E 16:42:03 10° N
GP-B 3.9 16:32:23 10° N 16:35:46 42° NW 16:35:46 42° NW
CZ-4C R/B 4.0 16:40:01 53° NW 16:40:01 53° NW 16:43:35 10° NNW
Timation 1 Rocket 4.2 16:34:21 10° NNW 16:40:18 72° WSW 16:41:04 64° SSW
Cosmos 1842 Rocket 3.6 16:36:03 10° N 16:40:22 77° NE 16:40:22 77° NE
Cosmos 1610 Rocket 4.3 16:40:35 58° S 16:41:54 88° W 16:48:06 10° N
CZ-4B R/B 3.4 16:38:58 10° NNE 16:44:16 84° WNW 16:44:53 70° SSW
Cosmos 2263 Rocket 2.1 16:40:25 10° NNW 16:46:02 82° ENE 16:47:56 43° SSE
STARLINK-44 4.4 16:48:49 39° ENE 16:48:49 39° ENE 16:51:17 10° NE
Cosmos 1315 Rocket 3.1 16:43:49 10° N 16:47:24 65° NE 16:47:24 65° NE
ADEOS II 2.5 16:43:24 10° NNE 16:48:34 55° E 16:49:58 42° SSE
STARLINK-37 4.2 16:50:36 45° ENE 16:50:36 45° ENE 16:53:15 10° NE
Cosmos 2058 3.0 16:49:47 74° E 16:49:47 74° E 16:53:55 10° N
STARLINK-36 4.2 16:52:00 45° ENE 16:52:00 45° ENE 16:54:40 10° NE
STARLINK-1021 4.3 16:52:24 45° ESE 16:52:24 45° ESE 16:55:55 10° ENE
STARLINK-1010 4.2 16:52:21 49° ESE 16:52:21 49° ESE 16:56:05 10° NE
IRS-1D 3.5 16:48:50 10° NNE 16:54:06 82° ESE 16:55:08 58° S
STARLINK-63 4.0 16:55:04 50° ENE 16:55:04 50° ENE 16:57:50 10° NE
NPP 3.8 16:49:22 10° N 16:54:38 55° WNW 16:55:24 50° WSW
STARLINK-35 3.9 16:56:45 53° ENE 16:56:45 53° ENE 16:59:37 10° NE
STARLINK-1019 4.0 16:57:09 52° ESE 16:57:09 52° ESE 17:00:53 10° NE
STARLINK-51 3.9 16:58:15 54° ENE 16:58:15 54° ENE 17:01:07 10° NE
STARLINK-30 3.8 16:59:49 57° NE 16:59:49 57° NE 17:02:44 10° NE
UNK 4.2 16:59:58 45° WNW 16:59:58 45° WNW 17:03:53 10° NNW
STARLINK-72 3.7 17:01:22 60° NE 17:01:22 60° NE 17:04:22 10° NE
ARIANE 5 R/B 3.4 16:56:32 10° NNE 17:01:14 40° E 17:03:21 27° SSE
Cosmos 2322 Rocket 2.3 17:00:39 50° WSW 17:01:48 61° WNW 17:07:22 10° NNE
STARLINK-1012 3.8 17:01:56 60° ESE 17:01:56 60° ESE 17:05:54 10° NE
IRS-1C 4.4 16:57:27 10° NNE 17:02:44 61° ESE 17:04:41 37° SSE
In-Cosmos 22 Rocket 4.1 17:02:08 52° SSW 17:03:31 77° W 17:09:02 10° N
AQUA 4.0 16:58:55 10° N 17:03:32 51° WNW 17:03:58 50° W
Cosmos 962 Rocket 4.4 17:01:24 39° S 17:03:52 80° E 17:10:04 10° N
STARLINK-59 3.5 17:04:35 64° NNE 17:04:35 64° NNE 17:07:42 10° NE
STARLINK-56 3.5 17:06:03 67° NNE 17:06:03 67° NNE 17:09:14 10° NE
STARLINK-73 3.4 17:07:43 69° NNE 17:07:43 69° NNE 17:11:00 10° NE
Cosmos 2154 Rocket 4.1 17:05:53 44° SW 17:07:32 57° W 17:13:40 10° N
STARLINK-38 3.4 17:09:16 70° N 17:09:16 70° N 17:12:40 10° NE
STARLINK-68 3.4 17:10:11 66° NNW 17:10:11 66° NNW 17:13:41 10° NE
STARLINK-65 3.4 17:10:45 69° N 17:10:45 69° N 17:14:07 10° NE
STARLINK-50 3.3 17:10:43 78° NNW 17:10:43 78° NNW 17:14:25 10° NE
STARLINK-71 3.4 17:10:30 74° WNW 17:10:41 76° NW 17:14:42 10° NE
SL-16 R/B 2.8 17:10:02 41° SW 17:11:05 44° W 17:16:56 10° NNW
STARLINK-1026 3.5 17:11:30 72° S 17:11:45 76° SE 17:15:53 10° NE
STARLINK-53 3.4 17:12:23 64° NNW 17:12:23 64° NNW 17:15:50 10° NE
Elektron 1 3.9 17:15:10 87° SSE 17:15:11 87° SE 17:19:32 10° NE
STARLINK-1013 3.4 17:16:18 70° SSW 17:16:44 84° SE 17:20:53 10° NE
Resurs 1-4 Rocket 3.3 17:14:01 10° NNW 17:18:25 27° WNW 17:19:30 25° W
USA 215 3.9 17:19:05 32° WSW 17:19:05 32° WSW 17:24:19 10° WNW
SL-4 R/B 3.1 17:16:08 10° NW 17:20:49 52° NE 17:25:16 10° ESE
STARLINK-1009 3.5 17:21:04 63° SW 17:21:41 87° NW 17:25:51 10° NE
ERS-2 3.9 17:22:35 10° SE 17:25:49 31° ENE 17:29:05 10° N
Cosmos 2237 4.2 17:24:26 38° SW 17:26:38 72° WNW 17:32:22 10° NNE
STARLINK-1015 3.5 17:25:51 55° WSW 17:26:40 78° NW 17:30:49 10° NE
Cosmos 1892 3.5 17:26:55 35° WNW 17:26:55 35° WNW 17:30:15 10° NNW
Shenzhou-11 Module 4.4 17:26:03 13° NNW 17:26:57 14° N 17:28:26 10° NE
Cosmos 1125 Rocket 3.9 17:22:14 10° NNW 17:27:06 41° WSW 17:27:50 38° WSW
CZ-2D R/B 4.3 17:23:50 10° NNE 17:28:01 49° E 17:30:20 24° SSE
GEOS 3 Rocket 3.5 17:22:55 10° SE 17:28:04 89° ENE 17:33:21 10° NNW
STARLINK-1016 3.6 17:30:37 48° WSW 17:31:37 70° NW 17:35:46 10° NE
Spot 4 Rocket 4.4 17:27:04 10° NNE 17:32:09 60° ESE 17:35:25 22° S
STARLINK-24 4.2 17:32:58 34° W 17:34:06 44° NW 17:37:57 10° NE
STARLINK-25 4.0 17:34:02 34° WNW 17:34:40 38° NW 17:37:55 10° NNE
CZ-2C R/B 4.2 17:31:31 10° NNE 17:34:57 32° E 17:37:33 15° SSE
Cosmos 1076 Rocket 4.4 17:35:54 31° W 17:36:27 32° WNW 17:40:23 10° NNW
STARLINK-1008 3.8 17:35:25 41° WSW 17:36:38 63° NW 17:40:45 10° NE
SL-16 R/B 3.6 17:35:17 20° W 17:37:25 25° WNW 17:42:05 10° N
H-2A R/B 3.4 17:34:07 10° SE 17:38:13 40° ENE 17:42:25 10° N
Cosmos 1766 Rocket 3.8 17:35:59 25° S 17:38:24 65° E 17:42:42 10° NNE
Nadezhda 3 Rocket 4.5 17:32:35 10° NNW 17:38:30 42° W 17:41:13 28° SW
Cosmos 2366 rocket 4.1 17:34:02 20° S 17:38:33 79° E 17:44:52 10° N
Cosmos 2151 2.9 17:37:34 38° SSW 17:39:09 78° W 17:43:28 10° N
Okean 3 Rocket 3.6 17:37:44 29° S 17:40:04 82° E 17:44:38 10° N
Cosmos 1538 Rocket 4.1 17:37:32 26° S 17:40:34 77° ESE 17:45:58 10° NNE
Cosmos 1844 Rocket 3.7 17:35:20 10° N 17:40:42 46° ENE 17:46:01 10° SE
COSMOS 2428 3.7 17:36:36 15° S 17:40:57 41° ESE 17:46:15 10° NE
IRS-P3 4.4 17:35:57 10° N 17:41:06 51° WNW 17:43:28 30° SW
STARLINK-1014 3.9 17:40:13 36° W 17:41:37 57° NW 17:45:40 10° NE
SL-08 R/B 3.1 17:40:09 20° S 17:43:24 79° WSW 17:48:00 10° NNW
Lacrosse 5 rocket 2.5 17:43:46 23° S 17:45:34 33° SE 17:49:09 10° ENE
STARLINK-1025 4.1 17:45:00 31° W 17:46:37 51° NW 17:50:39 10° NE
CZ-2D R/B 4.0 17:45:19 10° NNW 17:48:02 14° WNW 17:49:45 13° W
STARLINK-1017 4.2 17:49:45 27° W 17:51:35 46° NW 17:55:35 10° NE
Cosmos 773 Rocket 4.3 17:50:23 28° SW 17:52:55 51° WNW 17:58:04 10° N
STARLINK-1023 4.4 17:54:31 24° W 17:56:34 42° NW 18:00:31 10° NNE
Cosmos 1408 3.9 17:57:51 22° W 17:58:22 23° WNW 18:01:22 10° NNW
Cosmos 2360 Rocket 2.9 17:56:52 22° WSW 17:59:49 38° WNW 18:05:03 10° N
Cosmos 1825 3.0 18:01:22 27° WSW 18:02:28 33° W 18:05:54 10° NNW
STARLINK-1044 4.5 18:01:30 20° S 18:03:53 40° SE 18:07:48 10° ENE
STARLINK-1047 4.3 18:06:17 20° SSW 18:08:51 45° SE 18:12:49 10° ENE
Cosmos 1727 Rocket 4.2 18:02:57 10° N 18:09:08 75° E 18:15:17 10° S
STARLINK-52 3.8 18:07:38 10° NW 18:10:46 51° NE 18:13:54 10° ESE
Cosmos 2333 Rocket 2.2 18:07:29 17° SSW 18:11:57 85° WNW 18:17:39 10° NNE
USA 229 DEB 4.4 18:06:15 10° NW 18:12:53 36° WSW 18:19:42 10° S
USA 229 4.4 18:06:21 10° NW 18:13:00 36° WSW 18:19:51 10° S
BREEZE-M DEB (TANK) 3.0 18:11:37 18° SW 18:15:50 80° SSE 18:18:50 10° ENE
Cosmos 2219 Rocket 2.1 18:12:52 15° SSW 18:17:31 82° WNW 18:23:08 10° NNE
Cosmos 2322 4.0 18:13:45 18° SW 18:17:51 52° WNW 18:23:27 10° N
STARLINK-1059 4.0 18:15:51 18° SSW 18:18:47 58° SE 18:22:51 10° NE
CZ-2C R/B 3.8 18:14:17 10° NNE 18:19:10 40° E 18:23:57 10° SSE
CZ-3 R/B 4.0 17:44:22 13° WSW 18:21:41 59° S 18:31:35 10° E
NOSS 3-1 (A) 4.4 18:14:40 10° NW 18:22:18 48° WSW 18:30:41 10° S
CZ-4C R/B 3.1 18:19:40 10° S 18:23:16 63° W 18:26:52 10° NNW
STARLINK-1057 3.8 18:20:38 17° SSW 18:23:45 65° SE 18:27:51 10° NE
Cosmos 1340 3.0 18:20:57 10° S 18:24:40 67° E 18:28:24 10° NNE
USA 32 4.5 18:21:53 10° S 18:27:02 65° E 18:32:14 10° N
ADEOS II 3.9 18:24:32 10° NNW 18:27:45 17° WNW 18:30:54 10° WSW
STARLINK-1034 3.7 18:25:26 15° SW 18:28:43 73° SE 18:32:51 10° NE
Cosmos 2263 Rocket 4.0 18:28:34 10° W 18:29:06 10° W 18:29:32 10° W
ATLAS 5 CENTAUR R/B 1.9 18:25:21 11° SSW 18:29:08 57° ESE 18:33:23 10° NE
COSMOS 2441 4.4 18:24:20 10° NNE 18:29:15 89° WNW 18:34:08 10° SSW
Cosmos 1328 Rocket 3.6 18:28:02 10° NNW 18:32:21 60° W 18:36:37 10° S
IDEFIX/ARIANE 42P 3.0 18:27:21 10° N 18:32:24 48° WNW 18:37:24 10° SW
STARLINK-1068 3.6 18:30:12 14° SW 18:33:41 81° SE 18:37:50 10° NE
STARLINK-1444 3.4 18:32:24 10° WNW 18:34:25 24° SW 18:36:31 10° S
Cosmos 1933 3.4 18:30:57 10° NNW 18:34:56 60° W 18:38:52 10° S
STARLINK-1452 3.4 18:33:02 10° WNW 18:35:03 23° SW 18:37:07 10° S
FALCON 9 DEB 3.9 18:32:18 10° NW 18:35:42 56° NE 18:39:07 10° ESE
STARLINK-1392 3.4 18:34:02 10° WNW 18:35:59 22° SW 18:38:01 10° S
STARLINK-1399 3.4 18:34:03 10° WNW 18:35:59 22° SW 18:38:02 10° S
STARLINK-1393 3.4 18:34:04 10° WNW 18:36:01 22° SW 18:38:04 10° S
STARLINK-1394 3.4 18:34:06 10° WNW 18:36:03 22° SW 18:38:05 10° S
STARLINK-1395 3.4 18:34:08 10° WNW 18:36:05 22° SW 18:38:06 10° S
STARLINK-1397 3.4 18:34:08 10° WNW 18:36:05 22° SW 18:38:08 10° S
STARLINK-1396 3.4 18:34:09 10° WNW 18:36:06 22° SW 18:38:08 10° S
STARLINK-1414 3.4 18:34:09 10° WNW 18:36:06 22° SW 18:38:08 10° S
STARLINK-1408 3.4 18:34:11 10° WNW 18:36:08 22° SW 18:38:10 10° S
STARLINK-1404 3.4 18:34:12 10° WNW 18:36:10 22° SW 18:38:12 10° S
STARLINK-1416 3.4 18:34:13 10° WNW 18:36:10 22° SW 18:38:12 10° S
STARLINK-1450 3.4 18:34:13 10° WNW 18:36:11 22° SW 18:38:13 10° S
STARLINK-1415 3.4 18:34:14 10° WNW 18:36:11 22° SW 18:38:13 10° S
STARLINK-1406 3.4 18:34:17 10° WNW 18:36:14 22° SW 18:38:15 10° S
STARLINK-1401 3.4 18:34:17 10° WNW 18:36:14 22° SW 18:38:16 10° S
STARLINK-1417 3.4 18:34:20 10° WNW 18:36:17 22° SW 18:38:19 10° S
STARLINK-1419 3.4 18:34:20 10° WNW 18:36:18 22° SW 18:38:20 10° S
STARLINK-1402 3.4 18:34:21 10° WNW 18:36:18 22° SW 18:38:20 10° S
STARLINK-1413 3.4 18:34:21 10° WNW 18:36:18 22° SW 18:38:21 10° S
STARLINK-1440 3.4 18:34:24 10° WNW 18:36:22 22° SW 18:38:25 10° S
STARLINK-1422 3.4 18:34:26 10° WNW 18:36:23 22° SW 18:38:25 10° S
STARLINK-1453 3.4 18:34:26 10° WNW 18:36:23 22° SW 18:38:26 10° S
STARLINK-1398 3.4 18:34:27 10° WNW 18:36:24 22° SW 18:38:27 10° S
STARLINK-1436 (VISORSAT) 3.4 18:34:27 10° WNW 18:36:25 22° SW 18:38:28 10° S
STARLINK-1420 3.4 18:34:29 10° WNW 18:36:26 22° SW 18:38:28 10° S
STARLINK-1460 3.4 18:34:32 10° WNW 18:36:28 22° SW 18:38:31 10° S
STARLINK-1410 3.4 18:34:36 10° WNW 18:36:33 22° SW 18:38:35 10° S
STARLINK-1423 3.4 18:34:36 10° WNW 18:36:33 22° SW 18:38:35 10° S
STARLINK-1421 3.4 18:34:36 10° WNW 18:36:33 22° SW 18:38:36 10° S
STARLINK-1454 3.5 18:34:36 10° WNW 18:36:33 22° SW 18:38:36 10° S
STARLINK-1400 3.5 18:34:37 10° WNW 18:36:34 22° SW 18:38:36 10° S
STARLINK-1458 3.5 18:34:37 10° WNW 18:36:35 22° SW 18:38:37 10° S
STARLINK-1445 3.5 18:34:40 10° WNW 18:36:38 22° SW 18:38:40 10° S
STARLINK-1446 3.5 18:34:42 10° WNW 18:36:40 22° SW 18:38:42 10° S
STARLINK-1407 3.5 18:34:43 10° WNW 18:36:41 22° SW 18:38:43 10° S
STARLINK-1405 3.5 18:34:44 10° WNW 18:36:41 22° SW 18:38:43 10° S
STARLINK-1457 3.5 18:34:45 10° WNW 18:36:42 22° SW 18:38:45 10° S
STARLINK-1456 3.5 18:34:45 10° WNW 18:36:43 22° SW 18:38:45 10° S
STARLINK-1451 3.5 18:34:45 10° WNW 18:36:43 22° SW 18:38:45 10° S
STARLINK-1437 3.5 18:34:46 10° WNW 18:36:43 22° SW 18:38:45 10° S
STARLINK-1370 3.5 18:34:46 10° WNW 18:36:43 22° SW 18:38:45 10° S
STARLINK-1455 3.5 18:34:46 10° WNW 18:36:44 22° SW 18:38:46 10° S
STARLINK-1439 3.5 18:34:47 10° WNW 18:36:44 22° SW 18:38:45 10° S
STARLINK-1409 3.5 18:34:47 10° WNW 18:36:44 22° SW 18:38:46 10° S
STARLINK-1447 3.5 18:34:47 10° WNW 18:36:44 22° SW 18:38:46 10° S
STARLINK-1441 3.5 18:34:49 10° WNW 18:36:46 22° SW 18:38:48 10° S
STARLINK-1443 3.5 18:34:51 10° WNW 18:36:48 22° SW 18:38:51 10° S
STARLINK-1442 3.5 18:34:53 10° WNW 18:36:51 22° SW 18:38:53 10° S
STARLINK-1418 3.5 18:34:54 10° WNW 18:36:51 22° SW 18:38:53 10° S
STARLINK-1351 3.5 18:34:54 10° WNW 18:36:51 22° SW 18:38:53 10° S
STARLINK-1434 3.5 18:34:54 10° WNW 18:36:51 22° SW 18:38:54 10° S
STARLINK-1403 3.5 18:34:55 10° WNW 18:36:51 22° SW 18:38:54 10° S
STARLINK-1448 3.5 18:34:55 10° WNW 18:36:52 22° SW 18:38:55 10° S
STARLINK-1433 3.5 18:34:57 10° WNW 18:36:54 22° SW 18:38:56 10° S
STARLINK-1449 3.5 18:34:58 10° WNW 18:36:55 22° SW 18:38:58 10° S
STARLINK-1438 3.5 18:35:01 10° WNW 18:36:58 22° SW 18:39:00 10° S
STARLINK-1412 3.5 18:35:07 10° WNW 18:37:04 22° SW 18:39:06 10° S
STARLINK-1411 3.5 18:35:07 10° WNW 18:37:04 22° SW 18:39:06 10° S
Cosmos 2344 3.6 18:30:22 10° SSW 18:38:07 89° ESE 18:45:49 10° NNE
PSLV R/B 3.5 18:34:20 10° NNE 18:38:32 88° ESE 18:42:43 10° SSW
STARLINK-1027 3.6 18:35:01 13° SW 18:38:40 90° ESE 18:42:49 10° NE
STARLINK-60 4.2 18:36:16 10° WNW 18:38:44 21° SW 18:41:12 10° S
ARIANE 5 R/B 4.0 18:36:28 10° NNW 18:40:00 20° WNW 18:43:33 10° WSW
Landsat 5 3.9 18:36:44 10° S 18:41:06 48° W 18:45:26 10° NNW
Cosmos 1844 3.8 18:37:34 10° NNW 18:43:18 63° WSW 18:48:58 10° S
STARLINK-1060 3.6 18:39:45 12° SW 18:43:37 82° NW 18:47:46 10° NE
Meteor 2-3 Rocket 3.9 18:38:52 10° SSW 18:44:19 53° WNW 18:49:46 10° N
Cosmos 158 Rocket 4.0 18:40:00 10° SSW 18:45:03 83° ESE 18:50:02 10° NNE
ADEOS 4.0 18:40:40 10° NNE 18:45:51 64° ESE 18:51:01 10° S
Cosmos 2228 Rocket 3.9 18:43:03 10° N 18:47:32 58° E 18:52:00 10° SSE
Cosmos 1980 4.1 18:42:23 10° S 18:47:57 64° ESE 18:53:33 10° NNE
STARLINK-1030 3.7 18:44:33 10° SW 18:48:36 73° NW 18:52:44 10° NE
Cosmos 1680 Rocket 3.6 18:46:32 10° SSW 18:51:46 73° WNW 18:57:04 10° NNE
STARLINK-1020 3.8 18:49:30 10° SW 18:53:36 66° NW 18:57:43 10° NE
Cosmos 1500 Rocket 3.7 18:50:16 10° SSW 18:54:39 61° W 18:59:05 10° N
SL-24 R/B - RUBIN 2 4.5 18:49:34 10° SSW 18:55:09 78° ESE 19:01:29 10° NNE
Meteor 1-31 Rocket 4.5 18:53:29 10° NNE 18:56:59 34° E 19:00:30 10° SSE
Cosmos 923 Rocket 4.4 18:53:06 10° SW 18:58:05 46° WNW 19:03:05 10° N
STARLINK-1052 3.9 18:54:30 10° WSW 18:58:34 59° NW 19:02:40 10° NE
Cosmos 1782 2.8 18:55:09 10° N 18:59:09 83° W 19:03:07 10° S
ERS-2 4.0 18:57:37 10° SW 18:59:25 13° W 19:01:14 10° WNW
SL-4 R/B 3.4 18:56:36 10° WNW 19:00:13 23° SW 19:03:42 10° S
